Hourly Data Report for October 17, 2016

All times are specified in Local Standard Time (LST). Add 1 hour to adjust for Daylight Saving Time where and when it is observed.

ST LEONARD CS
NEW BRUNSWICK

47°09'28.050" N
67°49'55.014" W
245.00 m
810I001
71019
WIY

Download Data

Hourly Data (October 2016)
Hourly Data Report for October 17, 2016
Temp Definition
°C
Dew Point Temp Definition
°C
Rel Hum Definition
%
Wind Dir Definition
10's deg

Wind Spd Definition
km/h
Visibility Definition
km
Stn Press Definition
kPa
Hmdx Definition


Wind Chill Definition


Weather Definition


TIME
00:00 10.2 9.8 97 22 5   97.77     LegendNANA
01:00 9.9 9.5 97 16 8   97.75     LegendNANA
02:00 9.9 9.5 98 22 4   97.79     LegendNANA
03:00 9.4 9.0 98 20 5   97.80     LegendNANA
04:00 8.6 8.3 98 30 1   97.82     LegendNANA
05:00 8.5 8.2 98 28 12   97.90     LegendNANA
06:00 8.9 8.5 98 31 24   97.96     LegendNANA
07:00 7.9 6.7 92 31 17   98.02     LegendNANA
08:00 7.0 4.6 85 31 17   98.10     LegendNANA
09:00 7.2 3.9 80 30 19   98.15     LegendNANA
10:00 8.5 3.9 73 32 18   98.09     LegendNANA
11:00 8.6 3.1 68 32 19   98.12     LegendNANA
12:00 8.5 2.9 68 29 18   98.18     LegendNANA
13:00 8.6 2.6 66 31 20   98.18     LegendNANA
14:00 9.5 2.6 62 31 22   98.19     LegendNANA
15:00 10.6 2.8 58 30 24   98.23     LegendNANA
16:00 9.3 2.5 63 32 21   98.24     LegendNANA
17:00 9.1 2.5 63 32 20   98.28     LegendNANA
18:00 7.1 1.8 69 33 14   98.32     LegendNANA
19:00 5.3 1.1 75 29 4   98.42     LegendNANA
20:00 5.3 1.6 77 34 11   98.42     LegendNANA
21:00 3.5 1.3 86 30 3   98.46     LegendNANA
22:00 1.6 0.5 92 26 4   98.54     LegendNANA
23:00 1.6 0.8 94 34 6   98.55     LegendNANA

Notes on Data Quality.

Legend

  • E = Estimated
  • M = Missing
  • NA = Not Available
  • ‡ = Partner data that is not subject to review by the National Climate Archives
Date modified: